{"data":{"norad_id":51738,"epoch":"2026-09-19T22:45:13.554720Z","epoch_age_seconds":99915,"freshness":"FRESH","line1":"1 51738U 22016AA  26262.94807355  .00000009  00000+0  12070-4 0  9996","line2":"2 51738  53.1595 153.3903 0001167  88.8605 271.2530 15.31696793253064","mean_motion":15.31696793,"eccentricity":0.0001167,"inclination_deg":53.1595,"raan_deg":153.3903,"arg_perigee_deg":88.8605,"mean_anomaly_deg":271.253,"bstar":1.207e-5,"rev_number":25306,"period_min":94.013384801805,"perigee_km":469.95029008146,"apogee_km":471.54882020343,"semimajor_km":6848.8865551424,"source":"CELESTRAK","updated_at":"2026-09-20T09:00:39.930774Z"}}